Location: ????????
(55.0808°N, 38.5463°E)
Time: 10:09:00
(UTC+00:00)

CZ-2C R/B - Visible Passes

Search period start: 24 July 2024 00:00
Search period end: 03 August 2024 00:00
Orbit: 784 x 868 km, 98.3° (Epoch: 23 July)

Date Brightness Start Highest point End Pass type
(mag) Time Alt. Az. Time Alt. Az. Time Alt. Az.
24 Jul 4.6 21:32:09 10° ESE 21:36:39 26° NE 21:41:08 10° N visible
24 Jul 2.7 23:10:45 10° SSE 23:16:22 81° WSW 23:22:01 10° NNW visible
25 Jul 5.0 21:13:51 10° E 21:17:50 20° NE 21:21:47 10° N visible
25 Jul 2.9 22:51:43 10° SSE 22:57:19 78° ENE 23:02:55 10° NNW visible
26 Jul 4.0 00:33:45 10° SW 00:38:10 23° W 00:42:35 10° NW visible
26 Jul 5.2 20:55:45 10° E 20:59:03 16° NE 21:02:21 10° N visible
26 Jul 3.3 22:32:49 10° SE 22:38:18 59° ENE 22:43:47 10° N visible
27 Jul 3.7 00:13:57 10° SSW 00:18:53 31° W 00:23:49 10° NNW visible
27 Jul 5.3 20:37:55 10° ENE 20:40:19 13° NE 20:42:43 10° NNE visible
27 Jul 3.7 22:14:03 10° SE 22:19:21 45° ENE 22:24:37 10° N visible
27 Jul 3.3 23:54:35 11° SSW 23:59:40 41° W 00:04:56 10° NNW visible
28 Jul 5.5 20:20:55 10° NE 20:21:38 10° NE 20:22:21 10° NNE visible
28 Jul 4.1 21:55:25 10° ESE 22:00:25 35° ENE 22:05:24 10° N visible
28 Jul 2.9 23:35:22 12° S 23:40:29 55° W 23:45:58 10° NNW visible
29 Jul 4.5 21:36:56 10° ESE 21:41:33 27° NE 21:46:08 10° N visible
29 Jul 2.7 23:16:10 12° S 23:21:21 74° WSW 23:26:56 10° NNW visible
30 Jul 4.8 21:18:35 10° E 21:22:43 22° NE 21:26:48 10° N visible
30 Jul 2.8 22:56:59 12° SSE 23:02:17 84° ENE 23:07:52 10° NNW visible
31 Jul 4.1 00:39:01 10° SW 00:43:12 21° W 00:47:23 10° NW visible
31 Jul 5.1 21:00:26 10° E 21:03:54 17° NE 21:07:23 10° N visible
31 Jul 3.1 22:37:47 10° SSE 22:43:15 64° ENE 22:48:43 10° NNW visible
01 Aug 3.8 00:19:16 11° SSW 00:23:55 28° W 00:28:39 10° NNW visible
01 Aug 5.2 20:42:31 10° ENE 20:45:10 14° NE 20:47:48 10° NNE visible
01 Aug 3.5 22:18:55 10° SE 22:24:15 49° ENE 22:29:34 10° N visible
02 Aug 3.4 00:00:05 13° SSW 00:04:40 38° W 00:09:48 10° NNW visible
02 Aug 5.4 20:25:07 10° NE 20:26:27 11° NE 20:27:46 10° NNE visible
02 Aug 4.0 22:00:15 10° SE 22:05:19 37° ENE 22:10:21 10° N visible
02 Aug 3.0 23:40:53 14° S 23:45:28 50° W 23:50:51 10° NNW visible
